Date String (YYYY-MM-DD hh:mm:ss) UTC,Instrument flags,Ambient pressure (hPa),Sample flow (lpm),Bypass flow (lpm),Sample temperature (°C),Ambient temperature (°C),ASC tube jacket temperature (°C),LED temperature (°C),Box temperature (°C),Sample RH (%),Span deviation,Mass concentration (μg/m³),Mass concentration (μg/m³),Mass concentration (μg/m³)
DateTimeUTC,F1_M11,P_M11,Q1_M11,Q2_M11,T1_M11,T2_M11,T3_M11,T4_M11,T5_M11,U1_M11,ZSPAN_M11,X0_M11,X2_M11,X1_M11
2022-03-11 10:00:00,,0826.4,5.00,0.00,22.0,21.7,00.0,31.1,23.6,05.5,0001.3,0013.91,0010.27,0009.85
2022-03-11 10:01:00,,0826.3,4.99,0.00,22.1,22.4,00.0,31.2,23.9,05.5,0001.3,0014.25,0010.19,0009.75
2022-03-11 10:02:00,,0826.3,5.00,0.00,22.3,23.0,00.0,31.2,24.1,05.4,0001.3,0014.55,0010.10,0009.66
2022-03-11 10:03:00,,0826.3,5.01,0.00,22.4,23.1,00.0,31.2,24.2,05.4,0001.3,0014.45,0010.00,0009.57
2022-03-11 10:04:00,,0826.3,4.99,0.00,22.4,22.7,00.0,31.2,24.1,05.4,0001.5,0014.39,0009.93,0009.49
2022-03-11 10:05:00,,0826.3,5.00,0.00,22.3,22.3,00.0,31.3,24.0,05.3,0001.8,0014.30,0009.85,0009.41
2022-03-11 10:06:00,,0826.3,5.00,0.00,22.2,22.0,00.0,31.2,23.8,05.3,0001.6,0014.17,0009.80,0009.38
2022-03-11 10:07:00,,0826.3,5.00,0.00,22.1,21.6,00.0,31.2,23.6,05.4,0001.1,0013.87,0009.76,0009.36
2022-03-11 10:08:00,,0826.2,5.00,0.00,22.0,21.3,00.0,31.2,23.5,05.5,0000.8,0013.78,0009.78,0009.40
2022-03-11 10:09:00,,0826.2,5.00,0.00,22.0,21.3,00.0,31.2,23.4,05.6,0000.6,0013.81,0009.81,0009.44
2022-03-11 10:10:00,,0826.3,5.01,0.00,22.0,21.9,00.0,31.2,23.6,05.6,0000.5,0013.83,0009.81,0009.45
2022-03-11 10:11:00,,0826.2,5.00,0.00,22.2,22.5,00.0,31.2,23.9,05.5,0000.3,0013.98,0009.81,0009.45
2022-03-11 10:12:00,,0826.2,5.00,0.00,22.3,23.1,00.0,31.2,24.2,05.5,0000.1,0014.00,0009.83,0009.47
2022-03-11 10:13:00,,0826.1,5.00,0.00,22.4,23.2,00.0,31.3,24.2,05.5,0000.3,0013.64,0009.86,0009.48
2022-03-11 10:14:00,,0826.2,5.00,0.00,22.4,22.7,00.0,31.3,24.1,05.5,0000.5,0013.71,0009.87,0009.49
2022-03-11 10:15:00,,0826.1,4.99,0.00,22.3,22.3,00.0,31.3,23.9,05.6,0000.1,0013.80,0009.88,0009.50
2022-03-11 10:16:00,,0826.1,5.00,0.00,22.2,21.9,00.0,31.3,23.7,05.7,0000.4,0013.89,0009.96,0009.57
2022-03-11 10:17:00,,0826.1,5.00,0.00,22.1,21.6,00.0,31.2,23.6,05.7,0000.3,0014.32,0010.05,0009.65
2022-03-11 10:18:00,,0826.1,5.00,0.00,22.0,21.3,00.0,31.2,23.5,05.8,0000.7,0014.59,0010.14,0009.73
2022-03-11 10:19:00,,0826.1,5.00,0.00,21.9,21.2,00.0,31.2,23.4,05.8,0001.2,0014.63,0010.19,0009.79
2022-03-11 10:20:00,,0826.2,5.01,0.00,22.0,21.8,00.0,31.2,23.6,05.8,0001.6,0014.61,0010.19,0009.82
2022-03-11 10:21:00,,0826.1,5.00,0.00,22.1,22.4,00.0,31.2,23.9,05.7,0001.3,0014.65,0010.22,0009.83
2022-03-11 10:22:00,,0826.2,5.00,0.00,22.3,23.0,00.0,31.2,24.1,05.6,0001.3,0014.71,0010.25,0009.86
2022-03-11 10:23:00,,0826.2,5.00,0.00,22.3,22.8,00.0,31.2,24.1,05.6,0001.3,0014.60,0010.29,0009.88
2022-03-11 10:24:00,,0826.1,4.99,0.00,22.3,22.5,00.0,31.2,24.0,05.7,0000.9,0015.25,0010.35,0009.95
2022-03-11 10:25:00,,0826.1,4.99,0.00,22.2,22.1,00.0,31.2,23.9,05.7,0000.9,0015.25,0010.38,0009.98
2022-03-11 10:26:00,,0826.1,5.01,0.00,22.2,21.8,00.0,31.2,23.8,05.8,0001.0,0015.48,0010.38,0009.99
2022-03-11 10:27:00,,0826.1,5.00,0.00,22.1,21.6,00.0,31.2,23.7,05.8,0000.9,0015.61,0010.39,0009.96
2022-03-11 10:28:00,,0826.2,5.00,0.00,22.1,21.3,00.0,31.2,23.6,05.8,0000.9,0015.31,0010.38,0009.92
2022-03-11 10:29:00,,0826.2,5.00,0.00,22.0,21.5,00.0,31.2,23.6,05.8,0001.0,0015.20,0010.33,0009.87
2022-03-11 10:30:00,,0826.1,4.99,0.00,22.1,22.2,00.0,31.2,23.8,05.8,0000.9,0015.21,0010.30,0009.81
2022-03-11 10:31:00,,0826.2,5.00,0.00,22.3,22.8,00.0,31.2,24.1,05.8,0000.9,0015.23,0010.30,0009.80
2022-03-11 10:32:00,,0826.2,5.00,0.00,22.4,23.1,00.0,31.3,24.3,05.8,0001.2,0015.36,0010.34,0009.84
2022-03-11 10:33:00,,0826.2,5.00,0.00,22.4,22.8,00.0,31.3,24.2,05.7,0001.6,0015.28,0010.39,0009.88
2022-03-11 10:34:00,,0826.2,4.99,0.00,22.4,22.5,00.0,31.3,24.1,05.6,0001.4,0015.13,0010.42,0009.90
2022-03-11 10:35:00,,0826.2,5.00,0.00,22.3,22.1,00.0,31.3,23.9,05.5,0001.4,0014.55,0010.40,0009.87
2022-03-11 10:36:00,,0826.2,5.01,0.00,22.2,21.8,00.0,31.3,23.8,05.7,0001.2,0014.57,0010.48,0009.95
2022-03-11 10:37:00,,0826.1,5.00,0.00,22.1,21.5,00.0,31.2,23.7,05.8,0001.3,0014.34,0010.56,0010.02
2022-03-11 10:38:00,,0826.1,5.00,0.00,22.1,21.4,00.0,31.2,23.6,05.9,0001.4,0014.33,0010.61,0010.09
2022-03-11 10:39:00,,0826.1,4.98,0.00,22.1,21.8,00.0,31.2,23.7,05.9,0001.6,0014.40,0010.66,0010.15
2022-03-11 10:40:00,,0826.0,5.01,0.00,22.2,22.5,00.0,31.3,24.0,05.8,0001.6,0014.32,0010.71,0010.22
2022-03-11 10:41:00,,0826.2,5.00,0.00,22.4,23.1,00.0,31.3,24.2,05.8,0000.8,0014.37,0010.79,0010.30
2022-03-11 10:42:00,,0826.1,5.00,0.00,22.4,23.0,00.0,31.3,24.3,05.8,0000.5,0014.46,0010.88,0010.38
2022-03-11 10:43:00,,0826.1,5.00,0.00,22.4,22.6,00.0,31.3,24.2,05.8,0000.3,0014.48,0010.95,0010.43
2022-03-11 10:44:00,,0826.1,4.98,0.00,22.4,22.3,00.0,31.3,24.1,05.8,0000.2,0014.46,0010.97,0010.46
2022-03-11 10:45:00,,0826.1,5.01,0.00,22.3,22.0,00.0,31.3,24.0,05.9,0000.6,0014.60,0011.01,0010.51
2022-03-11 10:46:00,,0826.1,5.01,0.00,22.3,21.8,00.0,31.3,23.8,05.8,0000.6,0014.65,0011.07,0010.58
2022-03-11 10:47:00,,0826.1,5.00,0.00,22.2,21.5,00.0,31.3,23.7,05.8,0000.8,0014.68,0011.06,0010.56
2022-03-11 10:48:00,,0826.1,5.00,0.00,22.1,21.3,00.0,31.2,23.6,05.9,0000.3,0014.73,0011.07,0010.58
2022-03-11 10:49:00,,0826.1,4.99,0.00,22.1,21.7,00.0,31.2,23.7,05.9,0000.1,0014.69,0011.07,0010.59
2022-03-11 10:50:00,,0826.2,5.01,0.00,22.2,22.4,00.0,31.3,23.9,05.9,0000.4,0014.63,0011.08,0010.60
2022-03-11 10:51:00,,0826.2,5.00,0.00,22.3,23.0,00.0,31.3,24.2,05.8,0000.3,0014.61,0011.07,0010.59
2022-03-11 10:52:00,,0826.2,4.99,0.00,22.4,23.0,00.0,31.3,24.3,05.7,0000.9,0014.53,0011.02,0010.55
2022-03-11 10:53:00,,0826.2,5.00,0.00,22.4,22.7,00.0,31.3,24.2,05.7,0001.4,0014.48,0010.99,0010.53
2022-03-11 10:54:00,,0826.2,4.99,0.00,22.4,22.4,00.0,31.3,24.1,05.7,0001.6,0014.46,0010.96,0010.50
2022-03-11 10:55:00,,0826.2,5.01,0.00,22.4,22.1,00.0,31.3,24.0,05.7,0001.7,0014.45,0010.94,0010.50
2022-03-11 10:56:00,,0826.3,5.01,0.00,22.3,21.9,00.0,31.3,23.9,05.7,0001.8,0014.29,0010.90,0010.47
2022-03-11 10:57:00,,0826.3,5.00,0.00,22.2,21.6,00.0,31.3,23.8,05.7,0001.8,0014.31,0010.85,0010.41
2022-03-11 10:58:00,,0826.2,4.99,0.00,22.1,21.4,00.0,31.3,23.7,05.7,0001.5,0014.31,0010.79,0010.34
2022-03-11 10:59:00,,0826.2,5.00,0.00,22.1,21.3,00.0,31.2,23.6,05.7,0001.7,0014.24,0010.73,0010.25
